This is the latest recevied weather packets stored in our database for station/object N6DZK. If no packets are shown the sender has not sent any weather packets the latest 10 day(s).
| Time | Temp. | Humidity | Pressure | Rain* | Wind** | Luminosity | Snow |
|---|---|---|---|---|---|---|---|
| 1777779141 | 13.89° C | 76% | 1011.7 hPa | 0 mm | - | 0 W/m² | - |
| 1777778840 | 14.44° C | 76% | 1011.3 hPa | 0 mm | - | 0 W/m² | - |
| 1777778538 | 14.44° C | 75% | 1011.4 hPa | 0 mm | - | 0 W/m² | - |
| 1777778234 | 14.44° C | 75% | 1011.5 hPa | 0 mm | - | 0 W/m² | - |
| 1777777933 | 14.44° C | 75% | 1011.3 hPa | 0 mm | - | 0 W/m² | - |
| 1777777629 | 15° C | 74% | 1011.3 hPa | 0 mm | - | 1 W/m² | - |
| 1777777325 | 15° C | 74% | 1011.3 hPa | 0 mm | - | 2 W/m² | - |
| 1777777022 | 15° C | 73% | 1011.2 hPa | 0 mm | - | 3 W/m² | - |
| 1777776720 | 15° C | 73% | 1011.3 hPa | 0 mm | - | 4 W/m² | - |
| 1777776416 | 15.56° C | 72% | 1011.2 hPa | 0 mm | - | 7 W/m² | - |
| 1777776114 | 15.56° C | 72% | 1011.1 hPa | 0 mm | - | 11 W/m² | - |
| 1777775810 | 15.56° C | 71% | 1011.1 hPa | 0 mm | - | 16 W/m² | - |
| 1777775507 | 16.11° C | 71% | 1010.9 hPa | 0 mm | - | 22 W/m² | - |
| 1777775203 | 16.11° C | 71% | 1010.9 hPa | 0 mm | - | 29 W/m² | - |
| 1777774903 | 16.67° C | 70% | 1010.8 hPa | 0 mm | - | 34 W/m² | - |
| 1777774600 | 16.67° C | 69% | 1011 hPa | 0 mm | - | 40 W/m² | - |
| 1777774296 | 17.22° C | 69% | 1010.9 hPa | 0 mm | - | 47 W/m² | - |
| 1777773994 | 17.22° C | 68% | 1010.9 hPa | 0 mm | - | 55 W/m² | - |
| 1777773691 | 17.22° C | 67% | 1010.9 hPa | 0 mm | - | 64 W/m² | - |
| 1777773388 | 17.78° C | 67% | 1010.9 hPa | 0 mm | - | 73 W/m² | - |
| 1777773085 | 17.78° C | 66% | 1010.7 hPa | 0 mm | - | 81 W/m² | - |
| 1777772781 | 17.78° C | 65% | 1010.8 hPa | 0 mm | - | 85 W/m² | - |
| 1777772478 | 18.33° C | 65% | 1010.9 hPa | 0 mm | - | 88 W/m² | - |
| 1777772175 | 18.89° C | 64% | 1010.8 hPa | 0 mm | - | 95 W/m² | - |
| 1777771874 | 18.89° C | 63% | 1010.9 hPa | 0 mm | - | 106 W/m² | - |
* Rain latest hour (hover to see other rain measurements)
** Current wind speed in m/s (hover to see current wind gust speed)